CAS-2T & KS-1Q

Last updated on Sat Oct 18 2025 00:03:15 GMT+0000 (Coordinated Universal Time)

1 41847U 16066G 25290.63664802 .00002881 00000+0 41333-3 0 9991 2 41847 98.4100 3.9247 0345384 144.7697 217.6865 14.43900345469780
UTC large
Height (km)
Speed (km/s)
/
Latitude / Longitude
Inclination (degrees)
Orbital Period (minutes)
Azimuth
Elevation
Range (km)
Doppler Factor

Next 0 passes for location: London (51.5072 / 0.1276)

Sorry there are no passes over London.